This is the latest recevied weather packets stored in our database for station/object TA3MHA. If no packets are shown the sender has not sent any weather packets the latest 10 day(s).
| Time | Temp. | Humidity | Pressure | Rain* | Wind** | Luminosity | Snow |
|---|---|---|---|---|---|---|---|
| 1777224901 | 15.56° C | 53% | - | 0 mm | - | 0 W/m² | - |
| 1777224602 | 16.11° C | 51% | - | 0 mm | - | 0 W/m² | - |
| 1777224301 | 16.67° C | 48% | - | 0 mm | - | 0 W/m² | - |
| 1777224001 | 17.22° C | 46% | - | 0 mm | - | 0 W/m² | - |
| 1777223701 | 17.78° C | 44% | - | 0 mm | - | 0 W/m² | - |
| 1777223401 | 17.78° C | 42% | - | 0 mm | - | 1 W/m² | - |
| 1777223101 | 18.33° C | 41% | - | 0 mm | - | 3 W/m² | - |
| 1777222801 | 18.33° C | 40% | - | 0 mm | - | 5 W/m² | - |
| 1777222500 | 18.33° C | 42% | - | 0 mm | - | 7 W/m² | - |
| 1777222201 | 18.33° C | 40% | - | 0 mm | - | 11 W/m² | - |
| 1777221901 | 18.89° C | 39% | - | 0 mm | - | 15 W/m² | - |
| 1777221601 | 19.44° C | 39% | - | 0 mm | - | 19 W/m² | - |
| 1777221301 | 20° C | 38% | - | 0 mm | - | 24 W/m² | - |
| 1777221001 | 20° C | 38% | - | 0 mm | - | 29 W/m² | - |
| 1777220701 | 20.56° C | 37% | - | 0 mm | - | 34 W/m² | - |
| 1777220400 | 21.11° C | 36% | - | 0 mm | - | 39 W/m² | - |
| 1777220101 | 21.11° C | 36% | - | 0 mm | - | 46 W/m² | - |
| 1777219801 | 21.11° C | 36% | - | 0 mm | - | 52 W/m² | - |
| 1777219500 | 21.67° C | 36% | - | 0 mm | - | 60 W/m² | - |
| 1777219200 | 21.67° C | 35% | - | 0 mm | - | 68 W/m² | - |
| 1777218901 | 21.67° C | 35% | - | 0 mm | - | 77 W/m² | - |
| 1777218601 | 21.67° C | 33% | - | 0 mm | - | 87 W/m² | - |
| 1777218301 | 22.22° C | 32% | - | 0 mm | - | 97 W/m² | - |
| 1777218001 | 22.22° C | 32% | - | 0 mm | - | 108 W/m² | - |
| 1777217701 | 22.22° C | 32% | - | 0 mm | - | 120 W/m² | - |
* Rain latest hour (hover to see other rain measurements)
** Current wind speed in m/s (hover to see current wind gust speed)